Regional Weather Roundup
Issued by NWS

Home | Current Version | Previous Version | Graphics & Text | Print | Product List | Glossary On
Versions: 1 2 3 4 5 6 7 8 9 10 11 12 13 14 15 16 17 18 19 20 21 22 23 24 25 26 27 28 29 30 31 32 33 34 35 36 37 38 39 40 41 42 43 44 45 46 47 48 49 50
000
ASUS45 KSLC 041610
RWRUT

UTAH REGIONAL WEATHER ROUNDUP
NATIONAL WEATHER SERVICE SALT LAKE CITY UT
1000 AM MDT MON MAY 04 2015

UTZ001>011-023>025-041700-

NORTHERN UTAH

CITY           SKY/WX    TMP DP  RH WIND       PRES   REMARKS
BRIGHAM CITY   SUNNY     65  42  43 NW8       29.97S
DUGWAY         MOSUNNY   68  41  37 SW6       29.96S
HILL AFB       NOT AVBL
LOGAN          SUNNY     59  43  55 N5        29.99S
OGDEN          SUNNY     67  40  37 CALM      29.96S
PROVO AIRPORT  MOSUNNY   63  43  48 CALM      29.98F
SALT LAKE CITY MOSUNNY   67  41  38 SE3       29.95F
VERNAL         SUNNY     59  40  49 SE5       30.04S
WENDOVER       MOSUNNY   68  37  32 SE6       29.95S
HEBER CITY     SUNNY     59  39  47 CALM      30.02F
WEST JORDAN    CLOUDY    66  46  48 SE8       29.98S

$$

UTZ012>022-026-027-041700-

SOUTHERN/CENTRAL UTAH

CITY           SKY/WX    TMP DP  RH WIND       PRES   REMARKS
BLANDING       MOSUNNY   61  40  45 S6        30.12S
BRYCE CANYON   CLOUDY    51  36  56 CALM      30.10S
CEDAR CITY     MOSUNNY   56  40  55 SW5       30.02F
DELTA          SUNNY     64  37  36 S3        29.98S
HANKSVILLE     CLOUDY    55  50  82 SW5       30.04R
MILFORD        MOSUNNY   63  41  44 S18       29.98F
MOAB/CYNLANDS  SUNNY     64  46  52 N6        29.99S
PRICE          MOSUNNY   59  40  49 SE6       30.06R
ST GEORGE      PTSUNNY   63  46  55 E14       29.95F
KANAB          CLOUDY    59  43  55 CALM      30.04F

$$

REGIONAL REPORTS     COLORADO/ARIZONA

CITY           SKY/WX    TMP DP  RH WIND       PRES   REMARKS
CRAIG, CO      MOSUNNY   56  43  61 CALM      30.09S
GRAND JUNCTION MOSUNNY   63  43  48 SE5       30.02S
RIFLE          CLOUDY    53  45  74 CALM      30.07F
MONTROSE       PTSUNNY   61  40  45 N7        30.06F
CORTEZ         SUNNY     60  40  47 S3        30.05F
PAGE, AZ       CLOUDY    65  40  39 N6        29.99R
GRAND CANYON   CLOUDY    52  40  63 SW9       30.08S
KINGMAN        CLOUDY    62  50  64 E17       29.96R
FLAGSTAFF      CLOUDY    48  43  82 NE3       30.10R

$$

REGIONAL REPORTS    NEVADA/IDAHO/WYOMING

CITY           SKY/WX    TMP DP  RH WIND       PRES   REMARKS
LAS VEGAS, NV  MOSUNNY   76  31  19 S6        29.82R
ELY            SUNNY     60  35  39 S9        30.01F
ELKO           SUNNY     58  37  45 CALM      29.97F
POCATELLO, ID  SUNNY     62  42  47 CALM      29.99R
BURLEY         SUNNY     62  43  49 NE8       29.94S
EVANSTON, WY   SUNNY     54  40  59 E8        30.09F
ROCK SPRINGS   SUNNY     51  39  63 CALM      30.10S
KEMMERER       MOSUNNY   50  41  71 S5        30.12S

$$


USA.gov is the U.S. government's official web portal to all federal, state and local government web resources and services.